Regional Weather Roundup
Issued by NWS Northern Indiana

Home | Current Version | Previous Version | Graphics & Text | Print | Product List | Glossary On
Versions: 1 2 3 4 5 6 7 8 9 10 11 12 13 14 15 16 17 18 19 20 21 22 23 24 25 26 27 28 29 30 31 32 33 34 35 36 37 38 39 40 41 42 43 44 45 46 47 48 49 50
000
ASUS43 KIWX 222200
RWRIWX

KIWX WEATHER ROUNDUP
NATIONAL WEATHER SERVICE NORTHERN INDIANA
500 PM EST WED FEB 22 2017

NOTE: "FAIR" INDICATES FEW OR NO CLOUDS BELOW 12,000 FEET WITH NO
SIGNIFICANT WEATHER AND/OR OBSTRUCTIONS TO VISIBILITY.

* THESE STATIONS ARE NOT UNDER NWS QUALITY CONTROL. THEY ALSO MAY NOT
  REPORT WEATHER SUCH AS PRECIPITATION OR FOG.

INZ001>027-222300-
NORTHERN INDIANA

CITY           SKY/WX    TMP DP  RH WIND       PRES   REMARKS
GARY*          MOSUNNY   66  54  63 S12G23    29.68F
MICHIGAN CITY* PTSUNNY   63  54  72 S10G20    29.71F
LAPORTE*       PTSUNNY   64  55  75 SW12      29.71F
KNOX*          CLOUDY    63  36  36 S9        29.71F
SOUTH BEND     CLOUDY    62  54  74 S7        29.73F
ELKHART*       PTSUNNY   61  54  77 S8        29.73F
GOSHEN         CLOUDY    61  52  72 S10       29.74F
WARSAW*        CLOUDY    59  52  77 S5        29.74F
ANGOLA*        CLOUDY    61  52  72 S8        29.74F
FORT WAYNE     CLOUDY    61  53  75 SW9       29.76F

$$
INZ028>050-222300-
CENTRAL INDIANA

CITY           SKY/WX    TMP DP  RH WIND       PRES   REMARKS
LAFAYETTE      PTSUNNY   64  54  69 SW8       29.74F
KOKOMO*        CLOUDY    64  55  72 SW12      29.76F
MUNCIE*        CLOUDY    64  54  69 S8        29.77F
INDIANAPOLIS   PTSUNNY   66  55  67 S12       29.76F

$$
MIZ043>046-050>051-056>058-064>065-071>073-077>080-222300-
SOUTHWEST LOWER MICHIGAN

CITY           SKY/WX    TMP DP  RH WIND       PRES   REMARKS
BATTLE CREEK   CLOUDY    61  53  75 SW14      29.73F
BENTON HARBOR  CLOUDY    64  54  69 S14       29.69F
COLDWATER*     CLOUDY    62  53  73 S7        29.73F
HILLSDALE*     CLOUDY    59  52  77 S7        29.74F
HOLLAND        SUNNY     65  52  62 S14       29.67F
GRAND RAPIDS   MOSUNNY   63  52  67 S13       29.67F
KALAMAZOO      CLOUDY    61  52  72 S16       29.73S
STURGIS*       CLOUDY    60  55  81 SW7       29.73S
THREE RIVERS*  CLOUDY    60  52  75 W8        29.73F

$$
OHZ001>008-015>018-024>025-222300-
NORTHWEST OHIO

CITY           SKY/WX    TMP DP  RH WIND       PRES   REMARKS
DEFIANCE       CLOUDY    62  52  69 SW8       29.76S
FINDLAY        CLOUDY    62  53  72 S10       29.77S
TOLEDO EXPRESS CLOUDY    61  54  77 SW8       29.76F
TOLEDO METCALF CLOUDY    61  56  83 S9        29.77F
LIMA           CLOUDY    61  56  83 S9        29.78S

$$
AND FOR LAKE MICHIGAN COASTAL AND OPEN LAKE BUOY OBSERVATIONS

STATION/POSITION TEMP    WIND        PRES    VSBY  WAVE
                 AIR SEA DIR/SP/G                  HT/PER
                 (F)     (DEG/KT/KT) (MB)    (MI)  (FT/S)
CALUMET HARBOR    64     180/ 11/ 16 1004.3F
MICHIGAN CITY     62     190/ 16/ 18   N/A
BURNS HARBOR      63     210/ 19/ 24 1005.8F

$$
&&



USA.gov is the U.S. government's official web portal to all federal, state and local government web resources and services.